Regional Weather Roundup
Issued by NWS

Home | Current Version | Previous Version | Text Only | Print | Product List | Glossary On
Versions: 1 2 3 4 5 6 7 8 9 10 11 12 13 14 15 16 17 18 19 20 21 22 23 24 25 26 27 28 29 30 31 32 33 34 35 36 37 38 39 40 41 42 43 44 45 46 47 48 49 50
000
ASUS42 KFFC 291903
RWRGA
WEATHER ROUNDUP FOR GEORGIA
NATIONAL WEATHER SERVICE PEACHTREE CITY GA
200 PM EST THU JAN 29 2015

NOTE: "FAIR" INDICATES FEW OR NO CLOUDS BELOW 12,000 FEET WITH NO
SIGNIFICANT WEATHER AND/OR OBSTRUCTIONS TO VISIBILITY.

* = USE WITH CAUTION. THE STATIONS MARKED WITH AN ASTERISK MAY NOT
REPORT WEATHER SUCH AS PRECIPITATION, FOG, OR THUNDER AND ARE NOT
QUALITY CONTROLLED BY NWS.

THE REMARK "TC" DENOTES TEMPERATURE READING IN DEGREES CELSIUS.

GAZ001>058-292000-
NORTH GEORGIA

CITY           SKY/WX    TMP DP  RH WIND       PRES   REMARKS
ATLANTA        PTSUNNY   56  28  34 SW12      30.17F
ATHENS         SUNNY     56  24  29 S9G16     30.18F
CHAMBLEE       PTSUNNY   56  28  34 S9        30.17F
PEACHTREE CITY PTSUNNY   59  24  26 SW10G18   30.19F
ROME           MOSUNNY   57  34  41 S17       30.11F
WEST ATLANTA   CLOUDY    56  28  34 SW10      30.17F
GAINESVILLE    PTSUNNY   52  26  36 SW6       30.18F
CARTERSVILLE   PTSUNNY   56  31  38 S9        30.15F


CITY           SKY/WX    TMP DP  RH WIND       PRES   REMARKS
DALTON*        MOSUNNY   52  34  50 S14       30.14F
LAWRENCEVILLE* SUNNY     55  27  33 SW7       30.17F
MARIETTA       LGT RAIN  55  29  37 S9        30.16F
KENNESAW*      PTSUNNY  N/A N/A N/A SW8G17    30.18F
$$

GAZ059>098-102>109-292000-
CENTRAL GEORGIA

CITY           SKY/WX    TMP DP  RH WIND       PRES   REMARKS
AUGUSTA-BUSH   PTSUNNY   56  21  25 S12       30.24F
AUGUSTA-DANIEL PTSUNNY   55  23  28 S9        30.25F
COLUMBUS       PTSUNNY   56  31  38 VRB5      30.22F
MACON          MOSUNNY   55  30  38 S9        30.23F
ROBINS AFB     MOSUNNY   59  28  30 S12       30.24F


CITY           SKY/WX    TMP DP  RH WIND       PRES   REMARKS
LAGRANGE*      PTSUNNY   63  34  34 SW13      30.19F
SYLVANIA*      PTSUNNY   55  36  47 SW6       30.26F
MILLEDGEVILLE* MOSUNNY   57  32  38 CALM      30.23F
$$

GAZ099>101-110>166-292000-
SOUTH GEORGIA

CITY           SKY/WX    TMP DP  RH WIND       PRES   REMARKS
SAVANNAH       CLOUDY    58  38  47 S8        30.27F
VALDOSTA       MOSUNNY   61  32  33 SW8       30.25F
ALMA           PTSUNNY   60  33  36 S9        30.24F
ST SIMONS      PTSUNNY   58  41  53 SE6       30.27F
FT STEWART     PTSUNNY   60  38  44 VRB5      30.24F
ALBANY         MOSUNNY   61  29  29 SW10      30.27F
HUNTER AFB     PTSUNNY   58  41  53 S6        30.25F
MOODY AFB      MOSUNNY   63  30  28 S10       30.24F
BRUNSWICK      PTSUNNY   61  43  51 S7        30.26F


CITY           SKY/WX    TMP DP  RH WIND       PRES   REMARKS
BAINBRIDGE*    SUNNY     64  36  34 SW6       30.25F
MOULTRIE*      MOSUNNY   61  32  33 S5        30.25F
VIDALIA*       PTSUNNY   59  34  38 SW5       30.25F
WAYCROSS*      PTSUNNY   64  43  45 S10G16    30.24F
DOUGLAS*       PTSUNNY   61  30  31 SW8       30.26F
$$


USA.gov is the U.S. government's official web portal to all federal, state and local government web resources and services.